SCP
-0 -0 -0 -0 -0 -0 0 0 0 -0 -0 -0 -0 -0 -0 0 0 -0 -0 0 0 0 0 0 0 0 -0 -0 0 -0 -0 -0 -0 0 0 0 -0 0 0 0 0 0 0 0
0 -0 -0 -0 -0 0 0 -0 -0 0 -0 -0 -0 0 0 -0 0 0 -0 -0 -0 0 0 0 0 0 -0 0 0 -0 0 0 0 0 -0 0 0 0 0 0 0 0 0 0
0 0 0 -0 -0 -0 0 -0 -0 0 0 -0 0 0 0 -0 -0 -0 0 -0 -0 0 -0 0 0 -0 -0 -0 -0 0 0 0 0 -0 0 0 0 0 0 0 0 0 -0 -0
0 0 0 -0 0 -0 -0 -0 0 0 0 0 0 0 0 0 0 0 -0 -0 -0 -0 -0 0 1 0 0 0 0 0 0 0 -0 0 0 0 0 -0 0 0 0 0 0 0
0 0 0 0 0 -0 0 -0 0 0 0 0 0 0 0 0 0 -0 0 0 0 -0 -1 -0 -0 0 0 0 0 0 0 0 0 1 0 0 0 0 0 0 0 0 -0 -0
0 0 0 0 0 -0 -0 0 0 0 0 0 0 0 0 0 -0 0 -0 -0 0 -0 -0 -0 -0 -0 -0 0 0 0 0 0 0 0 0 0 0 0 -0 -0 -0 0 0 0
0 0 0 0 -0 0 -0 0 0 -0 0 0 0 0 0 -0 0 0 -0 -0 -0 0 -0 -1 -1 -0 0 -0 0 0 0 1 1 0 0 0 0 0 0 0 0 0 0 0
0 0 0 0 0 0 0 0 0 -0 -0 0 0 0 0 -0 0 0 0 0 0 0 -0 -1 -0 -0 0 -1 -0 0 0 0 0 0 0 0 0 0 0 0 0 0 0 0
0 0 0 0 0 0 0 0 0 -0 -0 -0 0 0 0 0 0 -0 0 -0 -0 0 -1 -1 -0 -0 1 -1 -0 0 0 0 0 0 0 0 0 0 0 0 0 0 0 0
0 0 -0 -0 0 0 0 0 0 0 -0 0 0 0 0 0 0 0 -0 -0 -0 -0 -1 -1 -0 -1 0 -0 0 0 0 0 0 0 0 0 0 0 0 0 0 0 0 0
0 0 0 -0 -0 0 0 0 0 0 0 0 0 0 0 0 0 -0 -0 0 -1 -1 -2 -1 -1 -0 0 0 0 0 0 0 0 0 0 0 0 0 0 0 0 0 0 0
0 0 0 0 0 -0 0 0 0 0 0 0 0 0 0 0 -0 -0 -0 -0 -1 -1 -2 -1 -1 -0 0 0 0 0 0 0 0 0 0 0 0 0 0 0 0 0 0 0
0 0 0 0 -0 -0 0 0 0 0 0 0 0 0 0 0 0 -0 0 1 2 -0 -2 -0 -0 0 -0 0 0 0 0 0 0 0 0 0 0 0 0 0 0 0 0 0
0 0 0 0 -0 -0 0 0 0 0 0 0 0 0 0 0 0 -0 0 1 -0 -0 -1 -0 -0 0 -0 -0 0 0 0 0 0 0 0 0 0 0 0 0 0 0 0 0
-0 0 0 0 0 0 -0 0 0 0 0 0 -0 -0 -0 -0 0 0 0 1 -0 -0 0 -0 -1 0 0 0 0 0 0 0 0 0 0 0 0 0 0 0 0 0 0 0
0 0 0 0 0 0 0 0 0 -0 0 0 0 0 0 -0 0 1 0 0 1 -0 -0 0 -0 -0 0 0 0 0 0 0 0 0 0 0 0 0 0 0 0 0 0 0
0 0 0 0 0 0 0 0 0 0 0 0 0 0 0 0 0 0 0 0 1 1 2 1 1 1 0 0 0 0 0 0 0 0 0 0 0 0 0 0 0 0 0 0
0 0 0 0 0 0 0 0 0 0 0 0 0 0 0 -0 0 0 0 1 2 3 1 0 0 0 0 0 0 0 0 0 0 0 0 0 0 0 0 0 0 0 0 0
0 0 0 0 0 0 0 0 0 0 0 0 0 0 0 1 1 4 4 4 2 -1 1 1 0 0 0 0 0 0 0 0 0 0 0 0 0 0 0 0 0 0 0 0
0 0 0 0 0 0 0 0 0 0 0 0 0 0 0 1 3 3 2 1 2 3 2 1 0 0 0 0 0 0 0 0 0 0 0 0 0 0 0 0 0 0 0 0
0 0 0 0 0 0 0 0 -0 0 0 0 0 0 0 1 1 1 0 0 2 3 2 1 0 0 0 0 0 0 0 0 0 0 0 0 0 0 0 0 0 0 0 0
0 0 0 0 0 0 0 0 0 0 0 0 0 2 1 1 1 1 2 2 4 1 1 1 0 0 0 0 0 0 0 0 0 0 0 0 0 0 0 0 0 0 0 0
0 0 0 -0 0 0 0 0 0 0 0 0 0 1 0 0 0 4 4 1 3 -0 1 -0 0 0 0 0 0 0 0 0 0 0 0 0 0 0 0 0 0 0 0 0
-0 -0 0 0 -0 0 0 0 0 0 0 0 0 -0 0 0 0 0 0 0 -0 0 0 0 0 0 0 0 0 0 0 0 0 0 0 0 0 0 0 0 0 0 0 0
0 -0 -0 0 0 -0 0 0 0 0 0 0 0 -0 0 0 0 0 0 1 -0 0 0 0 0 0 0 0 0 0 0 0 0 0 0 0 0 0 0 0 0 0 0 0
0 0 0 0 -0 -0 0 0 0 -0 0 0 0 0 0 1 1 1 2 2 1 0 -0 0 0 0 0 0 0 0 0 0 0 0 0 0 0 0 0 -0 -0 -0 0 0
Wind_Speed_500mb
38 11 17 28 30 17 11 10 16 34 31 11 44 48 56 65 29 45 54 53 48 44 41 36 40 43 34 36 49 49 38 32 30 26 20 20 19 20 22 10 7 5 10 9
13 27 27 34 38 13 35 28 20 13 24 27 37 45 47 36 21 34 52 60 54 56 55 47 41 53 53 37 48 43 38 40 38 33 22 15 9 20 12 8 6 10 7 3
21 27 31 38 38 29 24 33 31 29 19 6 29 8 10 23 35 32 47 68 60 65 65 53 59 56 68 15 49 47 39 40 37 28 18 15 3 13 7 7 3 13 18 11
22 28 38 34 30 16 13 21 8 14 9 7 7 7 13 8 9 28 20 55 62 68 73 65 63 56 49 41 38 49 52 40 38 25 23 15 19 20 19 19 16 11 4 7
22 35 31 31 35 21 23 19 13 7 8 2 10 13 13 14 12 14 16 15 24 78 85 74 66 64 51 42 16 25 44 40 33 38 20 14 18 19 18 14 13 6 6 10
26 43 29 27 33 28 18 8 15 11 5 5 12 13 9 7 16 8 17 26 21 16 79 73 61 51 36 27 22 39 38 33 36 38 30 21 17 12 15 11 2 6 19 22
24 29 22 22 20 29 13 6 6 10 8 13 15 15 15 24 26 12 22 39 22 35 67 73 67 53 40 31 35 40 36 41 42 38 31 25 16 12 19 14 5 2 14 20
20 23 20 28 17 17 17 16 11 13 8 7 7 12 11 28 22 6 25 51 30 63 68 81 67 57 46 40 47 42 40 34 35 38 30 31 23 19 21 19 18 18 23 24
13 19 29 29 29 10 17 12 15 13 17 3 11 8 17 5 10 20 22 95 84 43 78 82 67 58 54 48 40 38 28 28 35 31 28 28 25 24 22 21 22 22 25 25
27 16 33 27 33 17 21 14 9 9 10 12 13 19 13 19 16 11 10 29 56 77 79 70 64 64 55 55 49 34 22 29 29 28 22 16 21 22 19 16 21 21 18 17
23 23 45 21 10 28 7 8 10 5 7 7 4 8 19 29 21 27 33 56 85 78 82 75 75 69 63 51 41 29 30 33 32 29 25 26 22 17 12 11 13 12 10 9
24 17 21 32 32 17 20 20 20 10 19 8 9 10 26 35 33 42 39 62 72 78 79 74 76 72 60 49 43 36 38 41 38 38 31 27 20 14 10 8 6 6 4 5
8 12 12 20 19 16 14 14 13 9 3 12 6 8 19 24 18 39 35 35 70 73 69 72 67 61 57 51 44 39 42 48 42 33 29 22 18 13 10 9 7 4 4 4
14 6 5 11 18 12 11 15 17 18 7 10 13 20 24 19 25 22 32 45 73 79 77 70 62 62 60 50 43 46 52 44 34 35 32 30 23 17 13 8 5 7 6 7
6 6 11 18 21 29 23 17 20 21 20 12 13 31 38 46 31 25 21 35 65 74 77 78 69 69 59 52 47 52 48 43 44 46 34 28 23 20 14 8 5 8 10 14
6 10 9 16 23 25 27 23 21 14 23 17 15 14 43 66 40 43 54 33 47 74 81 76 74 68 57 53 54 55 51 49 44 41 30 22 17 16 15 12 12 15 16 14
14 7 5 14 19 20 16 16 16 17 11 13 14 20 9 28 44 63 77 74 66 68 72 71 74 66 61 53 60 61 56 51 43 36 24 18 17 16 16 17 17 16 15 14
27 8 5 12 11 14 19 20 16 18 19 18 14 12 4 55 90 86 75 64 64 65 66 70 69 64 65 62 61 60 53 45 39 29 22 20 19 18 21 19 17 14 14 15
17 15 7 3 6 13 15 19 13 14 23 17 21 15 35 63 62 34 88 92 89 91 93 77 69 63 60 65 65 58 49 44 35 29 22 23 20 21 22 21 17 14 15 11
31 22 8 9 6 12 14 22 33 26 16 33 19 18 42 49 21 25 90 102 88 85 89 80 68 59 71 71 60 53 48 40 33 27 22 23 19 20 23 19 15 16 14 8
9 8 11 12 10 15 22 26 32 13 10 31 49 25 15 23 34 103 101 75 77 96 91 78 69 77 82 71 56 53 43 36 30 24 24 25 21 22 18 16 16 17 17 21
10 8 4 11 10 16 42 16 12 16 26 35 53 28 34 28 54 80 51 40 43 87 80 77 86 87 81 66 56 52 42 35 31 25 28 31 25 23 15 15 17 20 19 11
4 9 9 10 8 13 50 21 50 52 48 51 44 17 27 74 88 77 82 87 52 39 65 79 85 81 68 58 48 47 42 36 31 26 29 30 28 23 11 19 25 18 10 5
9 15 5 19 12 36 24 41 50 63 74 62 59 16 27 68 67 76 65 51 59 89 87 81 83 75 63 51 46 41 37 33 31 30 31 37 36 23 18 25 19 4 6 3
4 3 6 15 12 43 31 58 50 55 67 63 61 33 30 30 43 72 82 77 91 93 86 83 73 65 57 50 47 41 33 33 33 30 31 31 30 29 30 25 14 8 7 3
16 12 9 11 16 9 34 34 46 43 69 76 76 40 49 25 57 49 77 95 99 89 85 76 64 58 58 55 49 40 33 35 39 33 31 30 23 21 28 24 20 17 11 9
Wind_Direction_500mb
232 221 242 250 256 146 169 229 189 207 229 71 132 141 212 230 205 191 191 179 182 188 174 177 164 185 182 178 178 198 210 203 219 233 239 225 201 220 236 239 239 281 247 258
267 240 238 259 267 210 153 208 228 303 248 127 155 178 194 220 251 214 186 176 189 188 174 177 170 168 159 171 189 194 210 208 221 226 232 210 234 229 228 217 280 303 296 281
239 243 243 245 260 272 194 210 213 209 233 302 122 82 170 250 252 295 221 185 193 187 168 166 173 173 173 199 189 187 194 208 233 245 219 169 216 255 240 253 354 333 326 309
246 256 253 261 260 274 285 228 239 207 106 193 149 101 180 223 197 186 272 182 197 176 168 169 183 190 210 219 198 198 210 210 221 241 210 203 196 214 189 182 165 85 279 252
238 247 261 260 259 254 247 260 294 235 250 329 295 98 275 256 232 338 297 211 222 175 170 178 188 198 204 196 194 190 195 209 203 223 229 212 216 225 200 207 183 257 296 255
251 255 243 250 269 276 283 319 320 322 164 27 166 117 276 235 222 244 253 279 296 288 166 176 177 179 171 174 174 184 193 193 201 208 218 238 234 221 223 213 275 304 237 237
276 269 275 261 282 281 288 291 327 329 341 230 141 91 215 220 253 225 327 312 301 272 180 164 173 181 174 181 184 179 185 190 207 207 206 204 209 215 236 214 223 13 188 247
229 269 258 262 240 220 237 196 163 230 248 242 1 151 243 223 293 228 100 236 249 268 192 174 177 164 170 166 169 174 190 209 205 201 220 217 240 217 203 211 215 221 248 261
235 244 248 235 247 198 276 300 232 241 265 320 163 24 342 216 246 198 206 216 225 220 173 170 169 168 168 177 185 197 203 216 200 213 217 230 213 214 215 215 225 230 246 268
251 279 272 269 226 238 174 215 295 324 214 254 273 171 201 183 214 233 246 271 201 180 166 162 159 171 174 174 179 185 200 192 194 191 188 191 189 214 222 216 233 246 259 275
220 231 267 285 262 207 233 200 255 229 169 182 280 280 178 177 175 205 233 157 161 164 155 160 168 170 173 179 185 190 190 174 179 181 179 178 182 195 207 220 239 259 288 309
215 210 242 257 265 246 185 184 189 143 281 234 174 299 159 180 198 193 214 145 159 157 160 167 167 170 173 180 181 193 181 171 170 169 178 172 179 186 214 229 250 294 301 347
346 252 239 326 317 328 221 201 194 229 216 255 205 222 177 180 201 212 192 150 145 150 153 155 166 170 176 180 179 183 171 172 180 185 175 170 177 192 206 229 259 230 168 127
36 312 174 202 242 257 306 193 207 187 212 247 238 141 184 188 205 210 132 140 144 149 157 158 166 171 174 175 171 164 165 178 170 166 170 172 183 207 215 218 179 140 122 108
107 276 311 292 292 295 274 259 229 209 221 204 249 158 186 201 189 183 153 131 148 154 157 161 163 170 173 171 167 164 173 181 176 183 194 200 201 213 226 214 170 116 117 99
264 271 293 292 293 297 301 293 295 266 211 227 238 220 192 206 157 151 155 185 184 160 162 166 170 174 173 175 171 172 180 183 187 198 205 206 206 200 186 168 139 124 115 99
293 208 229 258 282 305 315 278 290 294 282 198 226 237 189 153 159 178 184 193 188 161 157 167 172 178 176 179 175 181 186 188 198 199 196 198 192 180 169 154 143 129 117 104
299 338 202 228 256 277 261 290 289 292 287 288 299 278 273 172 179 183 187 185 167 160 170 178 177 179 178 178 183 184 193 196 195 195 195 190 184 172 161 153 144 131 113 98
290 288 301 171 236 255 285 282 276 261 279 264 246 257 105 117 135 147 174 174 174 185 175 175 182 185 179 177 187 191 196 194 192 195 188 184 180 169 161 152 147 132 106 85
241 239 196 295 261 265 253 338 320 280 264 347 290 213 137 145 153 183 167 175 180 177 173 171 176 178 175 181 188 193 194 193 195 193 182 178 176 172 164 165 164 153 135 116
271 278 240 261 234 260 19 332 38 71 271 345 7 354 180 181 196 183 174 176 172 173 167 171 177 177 180 182 188 190 189 193 191 186 179 180 182 170 172 164 150 147 115 100
239 129 302 309 218 268 355 9 59 289 343 354 14 16 71 104 112 137 156 168 148 149 158 164 171 178 180 183 189 186 183 192 194 190 185 184 182 176 170 161 145 145 133 119
61 45 317 29 292 46 26 6 360 355 352 358 354 22 113 121 117 129 137 143 108 225 164 170 171 172 175 183 190 177 182 192 199 189 184 175 168 159 181 158 135 139 144 288
11 23 357 344 328 356 341 344 342 346 344 337 335 32 143 124 130 134 156 180 185 180 171 169 170 169 172 183 187 188 183 194 200 186 171 158 160 176 181 154 155 166 291 231
40 106 109 260 291 350 16 349 347 330 338 344 353 21 175 155 157 148 150 155 162 159 165 169 172 172 175 183 191 187 183 199 188 177 168 170 179 188 172 163 164 194 265 94
185 179 179 245 263 241 276 325 324 320 335 324 322 315 186 199 149 144 155 160 158 158 166 169 176 183 183 186 191 184 193 190 182 174 169 161 145 158 160 168 182 193 244 227
Wind_Speed_850mb
38 11 17 28 30 17 11 10 16 34 31 11 44 48 56 65 29 45 54 53 48 44 41 36 40 43 34 36 49 49 38 32 30 26 20 20 19 20 22 10 7 5 10 9
13 27 27 34 38 13 35 28 20 13 24 27 37 45 47 36 21 34 52 60 54 56 55 47 41 53 53 37 48 43 38 40 38 33 22 15 9 20 12 8 6 10 7 3
21 27 31 38 38 29 24 33 31 29 19 6 29 8 10 23 35 32 47 68 60 65 65 53 59 56 68 15 49 47 39 40 37 28 18 15 3 13 7 7 3 13 18 11
22 28 38 34 30 16 13 21 8 14 9 7 7 7 13 8 9 28 20 55 62 68 73 65 63 56 49 41 38 49 52 40 38 25 23 15 19 20 19 19 16 11 4 7
22 35 31 31 35 21 23 19 13 7 8 2 10 13 13 14 12 14 16 15 24 78 85 74 66 64 51 42 16 25 44 40 33 38 20 14 18 19 18 14 13 6 6 10
26 43 29 27 33 28 18 8 15 11 5 5 12 13 9 7 16 8 17 26 21 16 79 73 61 51 36 27 22 39 38 33 36 38 30 21 17 12 15 11 2 6 19 22
24 29 22 22 20 29 13 6 6 10 8 13 15 15 15 24 26 12 22 39 22 35 67 73 67 53 40 31 35 40 36 41 42 38 31 25 16 12 19 14 5 2 14 20
20 23 20 28 17 17 17 16 11 13 8 7 7 12 11 28 22 6 25 51 30 63 68 81 67 57 46 40 47 42 40 34 35 38 30 31 23 19 21 19 18 18 23 24
13 19 29 29 29 10 17 12 15 13 17 3 11 8 17 5 10 20 22 95 84 43 78 82 67 58 54 48 40 38 28 28 35 31 28 28 25 24 22 21 22 22 25 25
27 16 33 27 33 17 21 14 9 9 10 12 13 19 13 19 16 11 10 29 56 77 79 70 64 64 55 55 49 34 22 29 29 28 22 16 21 22 19 16 21 21 18 17
23 23 45 21 10 28 7 8 10 5 7 7 4 8 19 29 21 27 33 56 85 78 82 75 75 69 63 51 41 29 30 33 32 29 25 26 22 17 12 11 13 12 10 9
24 17 21 32 32 17 20 20 20 10 19 8 9 10 26 35 33 42 39 62 72 78 79 74 76 72 60 49 43 36 38 41 38 38 31 27 20 14 10 8 6 6 4 5
8 12 12 20 19 16 14 14 13 9 3 12 6 8 19 24 18 39 35 35 70 73 69 72 67 61 57 51 44 39 42 48 42 33 29 22 18 13 10 9 7 4 4 4
14 6 5 11 18 12 11 15 17 18 7 10 13 20 24 19 25 22 32 45 73 79 77 70 62 62 60 50 43 46 52 44 34 35 32 30 23 17 13 8 5 7 6 7
6 6 11 18 21 29 23 17 20 21 20 12 13 31 38 46 31 25 21 35 65 74 77 78 69 69 59 52 47 52 48 43 44 46 34 28 23 20 14 8 5 8 10 14
6 10 9 16 23 25 27 23 21 14 23 17 15 14 43 66 40 43 54 33 47 74 81 76 74 68 57 53 54 55 51 49 44 41 30 22 17 16 15 12 12 15 16 14
14 7 5 14 19 20 16 16 16 17 11 13 14 20 9 28 44 63 77 74 66 68 72 71 74 66 61 53 60 61 56 51 43 36 24 18 17 16 16 17 17 16 15 14
27 8 5 12 11 14 19 20 16 18 19 18 14 12 4 55 90 86 75 64 64 65 66 70 69 64 65 62 61 60 53 45 39 29 22 20 19 18 21 19 17 14 14 15
17 15 7 3 6 13 15 19 13 14 23 17 21 15 35 63 62 34 88 92 89 91 93 77 69 63 60 65 65 58 49 44 35 29 22 23 20 21 22 21 17 14 15 11
31 22 8 9 6 12 14 22 33 26 16 33 19 18 42 49 21 25 90 102 88 85 89 80 68 59 71 71 60 53 48 40 33 27 22 23 19 20 23 19 15 16 14 8
9 8 11 12 10 15 22 26 32 13 10 31 49 25 15 23 34 103 101 75 77 96 91 78 69 77 82 71 56 53 43 36 30 24 24 25 21 22 18 16 16 17 17 21
10 8 4 11 10 16 42 16 12 16 26 35 53 28 34 28 54 80 51 40 43 87 80 77 86 87 81 66 56 52 42 35 31 25 28 31 25 23 15 15 17 20 19 11
4 9 9 10 8 13 50 21 50 52 48 51 44 17 27 74 88 77 82 87 52 39 65 79 85 81 68 58 48 47 42 36 31 26 29 30 28 23 11 19 25 18 10 5
9 15 5 19 12 36 24 41 50 63 74 62 59 16 27 68 67 76 65 51 59 89 87 81 83 75 63 51 46 41 37 33 31 30 31 37 36 23 18 25 19 4 6 3
4 3 6 15 12 43 31 58 50 55 67 63 61 33 30 30 43 72 82 77 91 93 86 83 73 65 57 50 47 41 33 33 33 30 31 31 30 29 30 25 14 8 7 3
16 12 9 11 16 9 34 34 46 43 69 76 76 40 49 25 57 49 77 95 99 89 85 76 64 58 58 55 49 40 33 35 39 33 31 30 23 21 28 24 20 17 11 9
Wind_Direction_850mb
232 221 242 250 256 146 169 229 189 207 229 71 132 141 212 230 205 191 191 179 182 188 174 177 164 185 182 178 178 198 210 203 219 233 239 225 201 220 236 239 239 281 247 258
267 240 238 259 267 210 153 208 228 303 248 127 155 178 194 220 251 214 186 176 189 188 174 177 170 168 159 171 189 194 210 208 221 226 232 210 234 229 228 217 280 303 296 281
239 243 243 245 260 272 194 210 213 209 233 302 122 82 170 250 252 295 221 185 193 187 168 166 173 173 173 199 189 187 194 208 233 245 219 169 216 255 240 253 354 333 326 309
246 256 253 261 260 274 285 228 239 207 106 193 149 101 180 223 197 186 272 182 197 176 168 169 183 190 210 219 198 198 210 210 221 241 210 203 196 214 189 182 165 85 279 252
238 247 261 260 259 254 247 260 294 235 250 329 295 98 275 256 232 338 297 211 222 175 170 178 188 198 204 196 194 190 195 209 203 223 229 212 216 225 200 207 183 257 296 255
251 255 243 250 269 276 283 319 320 322 164 27 166 117 276 235 222 244 253 279 296 288 166 176 177 179 171 174 174 184 193 193 201 208 218 238 234 221 223 213 275 304 237 237
276 269 275 261 282 281 288 291 327 329 341 230 141 91 215 220 253 225 327 312 301 272 180 164 173 181 174 181 184 179 185 190 207 207 206 204 209 215 236 214 223 13 188 247
229 269 258 262 240 220 237 196 163 230 248 242 1 151 243 223 293 228 100 236 249 268 192 174 177 164 170 166 169 174 190 209 205 201 220 217 240 217 203 211 215 221 248 261
235 244 248 235 247 198 276 300 232 241 265 320 163 24 342 216 246 198 206 216 225 220 173 170 169 168 168 177 185 197 203 216 200 213 217 230 213 214 215 215 225 230 246 268
251 279 272 269 226 238 174 215 295 324 214 254 273 171 201 183 214 233 246 271 201 180 166 162 159 171 174 174 179 185 200 192 194 191 188 191 189 214 222 216 233 246 259 275
220 231 267 285 262 207 233 200 255 229 169 182 280 280 178 177 175 205 233 157 161 164 155 160 168 170 173 179 185 190 190 174 179 181 179 178 182 195 207 220 239 259 288 309
215 210 242 257 265 246 185 184 189 143 281 234 174 299 159 180 198 193 214 145 159 157 160 167 167 170 173 180 181 193 181 171 170 169 178 172 179 186 214 229 250 294 301 347
346 252 239 326 317 328 221 201 194 229 216 255 205 222 177 180 201 212 192 150 145 150 153 155 166 170 176 180 179 183 171 172 180 185 175 170 177 192 206 229 259 230 168 127
36 312 174 202 242 257 306 193 207 187 212 247 238 141 184 188 205 210 132 140 144 149 157 158 166 171 174 175 171 164 165 178 170 166 170 172 183 207 215 218 179 140 122 108
107 276 311 292 292 295 274 259 229 209 221 204 249 158 186 201 189 183 153 131 148 154 157 161 163 170 173 171 167 164 173 181 176 183 194 200 201 213 226 214 170 116 117 99
264 271 293 292 293 297 301 293 295 266 211 227 238 220 192 206 157 151 155 185 184 160 162 166 170 174 173 175 171 172 180 183 187 198 205 206 206 200 186 168 139 124 115 99
293 208 229 258 282 305 315 278 290 294 282 198 226 237 189 153 159 178 184 193 188 161 157 167 172 178 176 179 175 181 186 188 198 199 196 198 192 180 169 154 143 129 117 104
299 338 202 228 256 277 261 290 289 292 287 288 299 278 273 172 179 183 187 185 167 160 170 178 177 179 178 178 183 184 193 196 195 195 195 190 184 172 161 153 144 131 113 98
290 288 301 171 236 255 285 282 276 261 279 264 246 257 105 117 135 147 174 174 174 185 175 175 182 185 179 177 187 191 196 194 192 195 188 184 180 169 161 152 147 132 106 85
241 239 196 295 261 265 253 338 320 280 264 347 290 213 137 145 153 183 167 175 180 177 173 171 176 178 175 181 188 193 194 193 195 193 182 178 176 172 164 165 164 153 135 116
271 278 240 261 234 260 19 332 38 71 271 345 7 354 180 181 196 183 174 176 172 173 167 171 177 177 180 182 188 190 189 193 191 186 179 180 182 170 172 164 150 147 115 100
239 129 302 309 218 268 355 9 59 289 343 354 14 16 71 104 112 137 156 168 148 149 158 164 171 178 180 183 189 186 183 192 194 190 185 184 182 176 170 161 145 145 133 119
61 45 317 29 292 46 26 6 360 355 352 358 354 22 113 121 117 129 137 143 108 225 164 170 171 172 175 183 190 177 182 192 199 189 184 175 168 159 181 158 135 139 144 288
11 23 357 344 328 356 341 344 342 346 344 337 335 32 143 124 130 134 156 180 185 180 171 169 170 169 172 183 187 188 183 194 200 186 171 158 160 176 181 154 155 166 291 231
40 106 109 260 291 350 16 349 347 330 338 344 353 21 175 155 157 148 150 155 162 159 165 169 172 172 175 183 191 187 183 199 188 177 168 170 179 188 172 163 164 194 265 94
185 179 179 245 263 241 276 325 324 320 335 324 322 315 186 199 149 144 155 160 158 158 166 169 176 183 183 186 191 184 193 190 182 174 169 161 145 158 160 168 182 193 244 227